FW0434 Weather Reports


time (UTC)temp
C
wind
direction
speed
KPH
gust
KPH
rain 1hr
cm
rain 24hr
cm
rain mn
cm
humidity
%
barometer
mb
20260906193018 23 158 8.0 19.3 0.03 0.03 0.03 94 1013.4
20260906191545 23 148 9.7 19.3 0.00 0.00 0.00 93 1013.4
20260906190007 23 134 12.9 17.7 0.00 0.00 0.00 92 1013.3
20260906184525 23 141 8.0 14.5 0.00 0.00 0.00 90 1013.6
20260906183037 23 191 8.0 16.1 0.00 0.00 0.00 90 1013.9
20260906181502 24 152 8.0 17.7 0.00 0.00 0.00 89 1014.1
20260906180022 24 175 11.3 19.3 0.00 0.00 0.00 89 1014.0
20260906174543 23 123 14.5 20.9 0.00 0.00 0.00 89 1014.1
20260906173103 23 113 12.9 20.9 0.00 0.00 0.00 89 1014.1
20260906171505 23 124 12.9 19.3 0.00 0.00 0.00 90 1014.0
20260906170011 23 146 11.3 17.7 0.00 0.00 0.00 90 1014.0
20260906164519 23 119 9.7 14.5 0.00 0.00 0.00 90 1013.9
20260906163031 23 153 9.7 24.1 0.00 0.00 0.00 90 1014.2
20260906161549 23 138 17.7 22.5 0.00 0.00 0.00 90 1014.0
20260906160005 23 138 12.9 20.9 0.00 0.00 0.00 91 1014.2
20260906154535 23 150 16.1 27.4 0.00 0.00 0.00 91 1014.2
20260906153036 22 131 11.3 19.3 0.00 0.00 0.00 93 1014.3
20260906151539 22 130 11.3 16.1 0.00 0.00 0.00 93 1014.5
20260906150051 22 115 6.4 14.5 0.00 0.00 0.00 94 1014.5
20260906144506 22 135 9.7 17.7 0.00 0.00 0.00 94 1014.2
20260906143011 22 131 11.3 19.3 0.00 0.00 0.00 95 1014.4
20260906141521 22 136 12.9 17.7 0.00 0.00 0.00 95 1014.4
20260906140041 21 113 11.3 17.7 0.00 0.00 0.00 95 1014.3
20260906134544 21 144 11.3 19.3 0.00 0.00 0.00 95 1014.4
20260906133053 21 128 11.3 17.7 0.00 0.00 0.00 95 1014.5
20260906131506 21 360 11.3 19.3 0.00 0.00 0.00 95 1014.2
20260906130037 21 152 9.7 19.3 0.00 0.00 0.00 95 1014.2
20260906124547 21 136 9.7 17.7 0.00 0.00 0.00 95 1014.0
20260906123101 21 118 6.4 16.1 0.00 0.00 0.00 95 1013.9
20260906121507 21 120 6.4 12.9 0.00 0.00 0.00 95 1014.1
20260906120025 21 121 9.7 16.1 0.00 0.00 0.00 95 1013.9
20260906114548 21 120 8.0 14.5 0.00 0.00 0.00 95 1013.9
20260906113102 21 128 4.8 11.3 0.00 0.00 0.00 94 1014.1
20260906111525 21 127 6.4 11.3 0.00 0.00 0.00 94 1014.2
20260906110041 21 142 6.4 12.9 0.00 0.00 0.00 95 1014.0
20260906104553 21 142 8.0 16.1 0.00 0.00 0.00 95 1014.0
20260906103105 21 121 8.0 14.5 0.00 0.00 0.00 95 1014.1
20260906101522 21 360 9.7 14.5 0.00 0.00 0.00 95 1014.1
20260906100034 21 137 6.4 14.5 0.00 0.00 0.00 95 1014.1
20260906094542 21 145 9.7 16.1 0.00 0.00 0.00 95 1013.9
20260906093113 21 107 8.0 12.9 0.00 0.00 0.00 95 1013.9
20260906091506 21 126 8.0 14.5 0.00 0.00 0.00 94 1013.8
20260906090012 21 167 8.0 14.5 0.00 0.00 0.00 94 1013.6
20260906084525 21 134 8.0 17.7 0.00 0.00 0.00 94 1013.6
20260906083039 21 131 8.0 16.1 0.00 0.00 0.00 94 1013.3
20260906081550 21 133 12.9 19.3 0.00 0.00 0.00 94 1013.3
20260906080055 21 121 8.0 16.1 0.00 0.00 0.00 94 1013.2
20260906074515 21 130 8.0 17.7 0.00 0.00 0.00 93 1012.9
20260906073016 22 121 9.7 19.3 0.00 0.00 0.00 93 1013.4
20260906071524 22 123 11.3 19.3 0.00 0.00 0.00 93 1013.5
20260906070032 22 134 8.0 14.5 0.00 0.00 0.00 92 1013.8
20260906064543 22 130 9.7 17.7 0.00 0.00 0.00 92 1013.5
20260906063050 22 137 8.0 14.5 0.00 0.00 0.00 92 1013.5
20260906061600 22 109 6.4 14.5 0.00 0.00 0.00 92 1014.0
20260906060008 22 150 6.4 12.9 0.00 0.00 0.00 91 1014.1
20260906054515 22 109 4.8 11.3 0.00 0.00 0.00 91 1014.3
20260906053030 22 111 4.8 14.5 0.00 0.00 0.00 91 1014.4
20260906051534 23 99 4.8 11.3 0.00 0.00 0.00 91 1013.9
20260906050058 23 130 6.4 16.1 0.00 0.00 0.00 91 1013.8
20260906044550 23 91 6.4 11.3 0.00 0.00 0.00 91 1013.9
20260906043112 23 112 3.2 11.3 0.00 0.00 0.00 91 1013.9
20260906041523 23 126 3.2 11.3 0.00 0.00 0.00 90 1014.0
20260906040028 23 67 4.8 12.9 0.00 0.00 0.00 90 1013.9
20260906034547 23 129 6.4 12.9 0.00 0.00 0.00 89 1013.7
20260906033101 23 117 6.4 11.3 0.00 0.00 0.00 89 1013.7
20260906031519 24 135 4.8 11.3 0.00 0.00 0.00 89 1013.8
20260906030033 24 121 4.8 9.7 0.00 0.00 0.00 89 1013.6
20260906024544 24 101 4.8 11.3 0.00 0.00 0.00 89 1013.5
20260906023107 25 13 3.2 11.3 0.00 0.00 0.00 88 1013.2
20260906021502 25 142 6.4 12.9 0.00 0.00 0.00 87 1013.1
20260906020022 25 105 4.8 11.3 0.00 0.00 0.00 88 1013.1
20260906014544 25 132 4.8 11.3 0.00 0.00 0.00 88 1013.2
20260906013009 25 133 4.8 8.0 0.00 0.00 0.00 88 1013.1
20260906011527 25 126 4.8 9.7 0.00 0.00 0.00 86 1013.1
20260906010045 25 105 6.4 12.9 0.00 0.00 0.00 85 1013.0
20260906004558 26 152 8.0 11.3 0.00 0.00 0.00 83 1012.9
20260906003006 26 126 9.7 19.3 0.00 0.00 0.00 81 1012.6
20260906001516 27 123 9.7 20.9 0.00 0.00 0.00 79 1012.3
20260906000030 27 132 12.9 17.7 0.00 0.00 0.00 78 1012.0
20260905234551 27 126 14.5 24.1 0.00 0.00 0.00 75 1011.6
20260905233052 28 124 11.3 27.4 0.00 0.00 0.00 74 1011.4
20260905231508 28 144 14.5 20.9 0.00 0.00 0.00 73 1011.2
20260905230027 29 138 14.5 25.7 0.00 0.00 0.00 70 1011.2
20260905224539 29 14 12.9 19.3 0.00 0.00 0.00 68 1011.5
20260905223046 30 121 12.9 24.1 0.00 0.00 0.00 65 1011.5
20260905221556 30 234 11.3 17.7 0.00 0.00 0.00 63 1011.3
20260905220013 30 103 12.9 22.5 0.00 0.00 0.00 64 1011.4
20260905214522 30 71 12.9 20.9 0.00 0.00 0.00 62 1011.2
20260905213029 30 121 11.3 22.5 0.00 0.00 0.00 58 1011.3
20260905211536 30 141 11.3 22.5 0.00 0.00 0.00 55 1011.7
20260905210051 30 195 11.3 20.9 0.00 0.00 0.00 59 1012.1
20260905204510 30 53 6.4 22.5 0.00 0.00 0.00 55 1012.2
20260905203024 30 117 8.0 17.7 0.00 0.00 0.00 57 1012.3
20260905201536 30 76 6.4 16.1 0.00 0.00 0.00 58 1012.4
20260905200041 29 129 6.4 19.3 0.00 0.00 0.00 58 1012.7